This is the latest recevied weather packets stored in our database for station/object XE2KK-10. If no packets are shown the sender has not sent any weather packets the latest 10 day(s).
| Time | Temp. | Humidity | Pressure | Rain* | Wind** | Luminosity | Snow |
|---|---|---|---|---|---|---|---|
| 1777592952 | 28.33° C | 64% | 1006.1 hPa | 0 mm | - | 85 W/m² | - |
| 1777592652 | 28.33° C | 64% | 1006.3 hPa | 0 mm | - | 131 W/m² | - |
| 1777592353 | 28.33° C | 64% | 1005.9 hPa | 0 mm | - | 147 W/m² | - |
| 1777592053 | 28.89° C | 63% | 1005.9 hPa | 0 mm | - | 152 W/m² | - |
| 1777591753 | 28.33° C | 63% | 1005.9 hPa | 0 mm | - | 147 W/m² | - |
| 1777591453 | 28.89° C | 63% | 1005.9 hPa | 0 mm | - | 131 W/m² | - |
| 1777591152 | 29.44° C | 62% | 1005.7 hPa | 0 mm | - | 122 W/m² | - |
| 1777590852 | 29.44° C | 61% | 1005.5 hPa | 0 mm | - | 136 W/m² | - |
| 1777590553 | 29.44° C | 61% | 1005.6 hPa | 0 mm | - | 161 W/m² | - |
| 1777590253 | 29.44° C | 61% | 1005.7 hPa | 0 mm | - | 196 W/m² | - |
| 1777589953 | 29.44° C | 61% | 1005.6 hPa | 0 mm | - | 216 W/m² | - |
| 1777589653 | 30° C | 60% | 1005.5 hPa | 0 mm | - | 294 W/m² | - |
| 1777589352 | 30° C | 60% | 1005.5 hPa | 0 mm | - | 206 W/m² | - |
| 1777589052 | 30° C | 60% | 1005.5 hPa | 0 mm | - | 204 W/m² | - |
| 1777588753 | 30° C | 59% | 1005.3 hPa | 0 mm | - | 388 W/m² | - |
| 1777588453 | 30° C | 59% | 1005.5 hPa | 0 mm | - | 370 W/m² | - |
| 1777588153 | 30° C | 60% | 1005.5 hPa | 0 mm | - | 374 W/m² | - |
| 1777587853 | 30° C | 59% | 1005.6 hPa | 0 mm | - | 359 W/m² | - |
| 1777587552 | 30° C | 60% | 1005.7 hPa | 0 mm | - | 336 W/m² | - |
| 1777587252 | 30° C | 59% | 1006.1 hPa | 0 mm | - | 365 W/m² | - |
| 1777586953 | 30° C | 59% | 1006 hPa | 0 mm | - | 457 W/m² | - |
| 1777586653 | 30° C | 60% | 1006 hPa | 0 mm | - | 470 W/m² | - |
| 1777586353 | 30° C | 60% | 1006 hPa | 0 mm | - | 274 W/m² | - |
| 1777586052 | 30° C | 59% | 1005.9 hPa | 0 mm | - | 354 W/m² | - |
| 1777585753 | 30° C | 60% | 1006.1 hPa | 0 mm | - | 464 W/m² | - |
* Rain latest hour (hover to see other rain measurements)
** Current wind speed in m/s (hover to see current wind gust speed)